Change the Weather History Date:

Tuesday, April 29, 2014

  Actual Average Record
Temperature  
Mean Temperature 60 °F 64 °F  
Max Temperature 69 °F 76 °F 88 °F (1957)
Min Temperature 50 °F 52 °F 36 °F (2008)
Degree Days  
Heating Degree Days 5 3  
Month to date heating degree days 185 194  
Since 1 July heating degree days 4075 3522  
Cooling Degree Days 0 2  
Month to date cooling degree days 37 44  
Year to date cooling degree days 37 55  
Growing Degree Days 10 (Base 50)    
Moisture  
Dew Point 49 °F    
Average Humidity 64    
Maximum Humidity 89    
Minimum Humidity 39    
Precipitation  
Precipitation T in 0.17 in 1.94 in (1953)
Month to date precipitation 4.19 4.69  
Year to date precipitation 18.19 17.68  
Snow  
Snow 0.00 in 0.00 in - ()
Month to date snowfall T 0.1  
Since 1 July snowfall 1.3 4.7  
Snow Depth 0.00 in    
Sea Level Pressure  
Sea Level Pressure 29.70 in    
Wind  
Wind Speed 7 mph (SW)    
Max Wind Speed 20 mph    
Max Gust Speed 26 mph    
Visibility 10 miles    
Events Rain    
T = Trace of Precipitation, MM = Missing Value Source: NWS Daily Summary

Daily Weather History Graph

Daily Weather History Graph

Search for Another Location

Airport or City:

Trip Planner

Search our weather history database for the weather conditions in past years. The results will help you decide how hot, cold, wet, or windy it might be!

Date:

Astronomy

Apr. 29, 2014 Rise Set
Actual Time 6:06 AM CDT 7:40 PM CDT
Civil Twilight 5:38 AM CDT 8:07 PM CDT
Nautical Twilight 5:06 AM CDT 8:40 PM CDT
Astronomical Twilight 4:31 AM CDT 9:14 PM CDT
Moon 6:23 AM CDT (4/29) 8:19 PM CDT (4/29)
Length of Visible Light 14h 28m
Length of Day
13h 34m
New Moon, 0% of the Moon is Illuminated
Apr 29
New Moon
May 6
First Quarter
May 14
Full
May 21
Last Quarter
May 28
New

Hourly Weather History & Observations

Time (CDT) Temp. Dew Point Humidity Pressure Visibility Wind Dir Wind Speed Gust Speed Precip Events Conditions
12:53 AM 62.1 °F 54.0 °F 75% 29.62 in 10.0 mi WSW 6.9 mph - 0.01 in   Partly Cloudy
1:53 AM 59.0 °F 51.1 °F 75% 29.62 in 10.0 mi SW 8.1 mph - N/A   Clear
2:53 AM 55.9 °F 50.0 °F 80% 29.63 in 10.0 mi SW 5.8 mph - N/A   Clear
3:53 AM 57.0 °F 48.9 °F 74% 29.62 in 10.0 mi SSW 5.8 mph - N/A   Clear
4:53 AM 55.9 °F 50.0 °F 80% 29.62 in 10.0 mi SW 5.8 mph - N/A   Overcast
5:53 AM 52.0 °F 46.9 °F 83% 29.63 in 10.0 mi South 4.6 mph - N/A   Clear
6:53 AM 54.0 °F 48.9 °F 83% 29.65 in 10.0 mi South 5.8 mph - N/A   Clear
7:53 AM 62.1 °F 53.1 °F 72% 29.66 in 10.0 mi South 6.9 mph - N/A   Clear
8:53 AM 66.0 °F 52.0 °F 60% 29.64 in 10.0 mi South 6.9 mph - N/A   Clear
9:53 AM 66.9 °F 52.0 °F 59% 29.70 in 10.0 mi WSW 8.1 mph - N/A   Mostly Cloudy
10:53 AM 68.0 °F 51.1 °F 55% 29.73 in 10.0 mi West 13.8 mph - N/A   Overcast
11:53 AM 68.0 °F 43.0 °F 40% 29.75 in 10.0 mi West 13.8 mph - N/A   Mostly Cloudy
12:53 PM 68.0 °F 44.1 °F 42% 29.77 in 10.0 mi West 11.5 mph - N/A   Overcast
1:53 PM 66.9 °F 45.0 °F 45% 29.76 in 10.0 mi WNW 10.4 mph 19.6 mph N/A   Mostly Cloudy
2:53 PM 64.9 °F 46.0 °F 50% 29.77 in 10.0 mi West 6.9 mph - N/A   Partly Cloudy
3:53 PM 64.0 °F 46.0 °F 52% 29.75 in 10.0 mi WSW 4.6 mph - N/A   Overcast
4:53 PM 64.0 °F 46.9 °F 54% 29.68 in 10.0 mi South 13.8 mph 21.9 mph 0.00 in Rain Light Rain
5:11 PM 64.4 °F 46.4 °F 52% 29.71 in 10.0 mi SSW 12.7 mph 24.2 mph 0.00 in Rain Light Rain
5:53 PM 63.0 °F 48.9 °F 60% 29.70 in 10.0 mi SSW 9.2 mph - 0.00 in   Mostly Cloudy
6:53 PM 62.1 °F 50.0 °F 65% 29.70 in 10.0 mi SSE 9.2 mph - N/A   Overcast
7:53 PM 61.0 °F 50.0 °F 67% 29.74 in 10.0 mi Variable 5.8 mph - N/A   Overcast
8:53 PM 57.0 °F 52.0 °F 83% 29.75 in 10.0 mi Calm Calm - N/A   Mostly Cloudy
10:53 PM 53.1 °F 50.0 °F 89% 29.79 in 10.0 mi Calm Calm - N/A   Mostly Cloudy
11:53 PM 51.1 °F 48.9 °F 92% 29.78 in 10.0 mi Calm Calm - N/A   Partly Cloudy